Showing default

LEMUR-2 FIKRETDENGIZ, 67363

Orbit data source: Space-Track

LEMUR-2 FIKRETDENGIZ, 67363 is a payload satellite owned by Spire/Lux (US) in SSO that was launched on Sun, 11 Jan 2026 UTC via an FALCON 9 launch vehicle from the Air Force Western Test Range (AFWTR). Payload-class satellites include a variety of spacecraft equipped with specific instruments for various scientific and technological missions. These include communications satellites like Starlink; space stations such as the ISS; scientific satellites like the Hubble; Earth observation satellites from companies like Planet Labs, Umbra, and HawkEye 360; GPS; miniature CubeSats for education and research; and military/defense satellites.

Loading next visibility...
Identifier
67363, 2026-004A
Orbit
SSO
Country
Flag of USUS
Related business
Manufacturer
Spire/Glasgow
Mission
Operational spacecraft
Bus & Motor
CUBESAT 3U, Unknown motor
Mass
4.6 kg wet, 4.6 kg dry
Launch date (UTC)
2026-01-11 (3 months ago)
Launch vehicle
FALCON 9
Launch site
Air Force Western Test Range (AFWTR)
Object type
Payload
Rocket body
Debris
Shape & HBR
Unknown shape, 0.1 m
Radar Cross Section
RCS unknown

Expand to show TLE details & history
Last TLE update: 14 hours ago

TLE from 14 hours ago
0 LEMUR-2 FIKRETDENGIZ
1 67363U 26004A   26094.97311940  .00006684  00000-0  73769-3 0  9991
2 67363  97.8025  94.6902 0009663  31.5135 328.6659 14.87752522 12397
Epoch: 2026-04-04T23:21Z
TLE epoch observation values (Epoch: 2026-04-04T23:21:17.516Z)
Latitude
0.00005°
Longitude
-88.91801°
Altitude
602.231 km
Speed
7.562 km/s
True Right ascension
06h 18m 45s
True Declination
0° 00' 00"
Sunlit
Object was in daylight at epoch
Visualization orbit readout
Latitude
Unknown
Longitude
Unknown
Altitude
Unknown
Speed
Unknown
Apparent Right ascension
Unknown
Apparent Declination
Unknown
Sunlit
N/A
Visualization observer readout
Local Sidereal Time
19:20:18
Azimuth
Unknown
Elevation
Unknown
Doppler factor
Unknown
Orbital elements
Apogee altitude
608.731 km
Perigee altitude
595.241 km
Semi-major axis
6,980.123 km
Eccentricity
0.00097
Inclination
97.8025°
RAAN
94.6902°
Arg. of periapsis
31.5135°
True anomaly
328.60826°
Mean anomaly
328.6659°
Eccentric anomaly
328.63708°
Mean motion
3.72176 °/min
Orbital period
96.73 mins
BSTAR
0.00073769
Loading maneuver chart data...
Computing Atmospheric mass density...
Loading historical data...
Loading historical data...
Loading historical data...
Loading historical data...
Loading historical data...
Loading historical data...
Loading historical data...

Documentation

Showing up to 5 results
|